This demonstration page uses our WeatherBlox Daily Observations layout. Learn more.

Left ArrowRight Arrow

41.55636, -103.73856

Hourly Observations for August 3, 2021

Temp ( °F °C ) Dew Point ( °F °C ) Humidity (%) Winds ( mph kmh ) Pressure ( in mb ) Visibility ( mi km ) Precip ( " mm )
12:58 am 00:58 Clear 71 21.8 40 4.5 32 32 S 14 22 29.99 1016 10 16 N/A
1:58 am 01:58 Clear 71 21.9 40 4.7 33 33 SSW 15 24 29.98 1015 10 16 N/A
2:58 am 02:58 Clear 69 20.7 47 8.5 46 46 SSW 14 22 29.97 1015 10 16 N/A
3:58 am 03:58 Clear 65 18.5 48 8.9 54 54 SSW 15 24 29.98 1015 10 16 N/A
4:58 am 04:58 Clear 64 17.9 47 8.4 54 54 WSW 5 7 30.00 1016 10 16 N/A
5:58 am 05:58 Mostly Sunny 61 16 48 9 63 63 SSW 7 11 30.00 1016 10 16 N/A
6:58 am 06:58 Mostly Sunny 64 17.5 51 10.3 63 63 SW 8 13 30.01 1016 10 16 N/A
7:58 am 07:58 Mostly Cloudy 69 20.8 52 10.9 53 53 WSW 5 7 30.01 1016 10 16 N/A
8:58 am 08:58 Mostly Cloudy 74 23.5 52 10.9 45 45 W 5 7 30.01 1016 10 16 N/A
9:58 am 09:58 Mostly Sunny 79 25.9 53 11.6 41 41 NW 6 9 30.01 1016 10 16 N/A
10:58 am 10:58 Mostly Sunny 81 27.3 52 10.9 36 36 N N/A 29.99 1016 10 16 N/A
11:58 am 11:58 Partly Cloudy 87 30.7 42 5.3 20 20 ESE 10 17 29.97 1015 10 16 N/A
12:58 pm 12:58 Mostly Sunny 88 31.3 45 7 22 22 S 10 17 29.95 1014 10 16 N/A
1:58 pm 13:58 Partly Cloudy 87 30.6 43 6 21 21 S 13 20 29.93 1014 10 16 N/A
2:58 pm 14:58 Partly Cloudy 88 31.3 43 6.2 21 21 SSW 17 28 29.93 1014 10 16 N/A
3:58 pm 15:58 Mostly Sunny 86 30.2 44 6.7 23 23 S 14 22 29.93 1014 10 16 N/A
4:58 pm 16:58 Mostly Cloudy 80 26.4 52 11.3 39 39 WNW 17 28 29.97 1015 10 16 N/A
5:58 pm 17:58 Sunny 76 24.5 54 12.1 46 46 W 10 17 29.98 1015 10 16 N/A
6:58 pm 18:58 Sunny 76 24.3 53 11.6 45 45 WNW 13 20 29.98 1015 10 16 N/A
7:58 pm 19:58 Partly Cloudy 74 23.1 51 10.5 45 45 SW 8 13 29.98 1015 10 16 N/A
8:58 pm 20:58 Mostly Cloudy 73 22.5 50 9.9 45 45 WSW 10 17 29.99 1016 10 16 N/A
9:58 pm 21:58 Mostly Cloudy 73 22.9 51 10.8 47 47 W 15 24 30.01 1016 10 16 N/A
10:58 pm 22:58 Mostly Cloudy 71 21.6 53 11.8 54 54 WNW 15 24 30.01 1016 10 16 N/A
11:58 pm 23:58 Mostly Cloudy 69 20.6 55 12.6 60 60 NW 14 22 30.01 1016 10 16 N/A

Powered by AerisWeather